DW9106 Madrid ES current weather conditions

sailwx.info

Wind from 187 at 0 knots gusting 5

Air temperature 24.4° C
Dewpoint 7.1° C

Last reported at 2016-Sep-29 17:42 UTC.
Time now 2016-Sep-29 18:41 UTC

Location: N 40°23' W 003°38'.
View on Google Maps.

See reports from other nearby stations

  
Tides and Currents Weather Stations Pressure Air Temp Water Temp Dewpoint Dewpoint Depression Visibility Wind Speed Wind Dir Waves Ship Positions
date/time (UTC)wind fromknots sea level pressurealtimeterstation pressurevisibilityair tempwater tempwave heightnotes
2016-Sep-29 17:42 187 0 gusting 5 24.4
2016-Sep-29 17:27 147 1 gusting 3 25.0
2016-Sep-29 17:12 219 25.6
2016-Sep-29 16:57 093 0 gusting 3 25.0
2016-Sep-29 16:42 101 1 gusting 6 25.0
2016-Sep-29 16:27 093 1 gusting 5 26.1
2016-Sep-29 16:12 187 0 gusting 8 25.6
2016-Sep-29 15:57 097 0 gusting 3 26.1
2016-Sep-29 15:42 261 0 gusting 4 26.1
2016-Sep-29 15:27 309 1 gusting 6 25.6
2016-Sep-29 15:12 065 0 gusting 4 25.6
2016-Sep-29 14:57 046 1 gusting 5 25.0
2016-Sep-29 14:42 101 0 gusting 6 25.6
2016-Sep-29 14:27 056 1 gusting 6 25.0
2016-Sep-29 14:12 117 2 gusting 6 25.0
2016-Sep-29 13:57 125 0 gusting 6 25.0
2016-Sep-29 13:42 129 0 gusting 5 25.0
2016-Sep-29 13:27 265 0 gusting 5 25.0
2016-Sep-29 13:12 168 1 gusting 6 24.4
2016-Sep-29 12:57 096 24.4
2016-Sep-29 12:41 127 23.9
2016-Sep-29 12:26 150 0 gusting 4 23.3
2016-Sep-29 12:11 252 1 gusting 4 23.3
2016-Sep-29 11:56 119 1 gusting 4 22.2
2016-Sep-29 11:41 098 5 gusting 9 21.7
2016-Sep-29 11:26 085 2 gusting 6 21.7
2016-Sep-29 11:11 133 22.2
2016-Sep-29 10:56 159 21.1
2016-Sep-29 10:41 109 1 gusting 6 20.6
2016-Sep-29 10:26 069 2 gusting 5 20.6
2016-Sep-29 10:11 092 1 gusting 4 20.0
2016-Sep-29 09:56 075 0 gusting 7 19.4
2016-Sep-29 09:41 125 0 gusting 4 19.4
2016-Sep-29 09:26 072 0 gusting 3 18.3
2016-Sep-29 09:11 073 1 gusting 5 17.2
2016-Sep-29 08:56 070 17.2
2016-Sep-29 08:41 096 0 gusting 5 16.1
2016-Sep-29 08:26 086 2 gusting 4 16.1
2016-Sep-29 08:11 063 17.2
2016-Sep-29 07:56 061 16.7
2016-Sep-29 07:41 058 0 gusting 3 16.1
2016-Sep-29 07:26 074 0 gusting 4 15.6
2016-Sep-29 07:11 061 0 gusting 4 15.0
2016-Sep-29 06:55 057 14.4
2016-Sep-29 06:40 049 13.9
2016-Sep-29 06:25 049 13.3
2016-Sep-29 06:10 049 13.3
2016-Sep-29 05:55 049 13.9
2016-Sep-29 05:40 085 13.3
2016-Sep-29 05:25 085 13.9
2016-Sep-29 05:10 085 13.9
2016-Sep-29 04:55 089 13.3
2016-Sep-29 04:40 089 13.3
2016-Sep-29 04:25 089 13.3
2016-Sep-29 04:10 089 13.3
2016-Sep-29 03:55 089 13.9
2016-Sep-29 03:40 089 13.9
2016-Sep-29 03:25 089 14.4
2016-Sep-29 03:10 089 14.4
2016-Sep-29 02:55 089 14.4
2016-Sep-29 02:40 089 14.4
2016-Sep-29 02:25 089 15.0
2016-Sep-29 02:10 089 15.6
2016-Sep-29 01:55 089 15.6
2016-Sep-29 01:40 089 15.6
2016-Sep-29 01:25 089 15.6
2016-Sep-29 01:10 089 16.1
2016-Sep-29 00:55 089 16.7
2016-Sep-29 00:40 089 16.7
2016-Sep-29 00:25 089 17.2
2016-Sep-29 00:10 089 17.2
2016-Sep-28 23:55 161 17.2
2016-Sep-28 23:40 165 17.2
2016-Sep-28 23:25 165 17.8
2016-Sep-28 23:10 150 17.8
2016-Sep-28 22:54 142 17.8
2016-Sep-28 22:40 139 18.3
2016-Sep-28 22:25 165 0 gusting 3 18.3
2016-Sep-28 22:09 200 0 gusting 4 18.3
2016-Sep-28 21:54 179 1 gusting 5 18.9
2016-Sep-28 21:39 190 0 gusting 6 18.9
2016-Sep-28 21:24 184 1 gusting 6 19.4
2016-Sep-28 21:09 188 0 gusting 4 19.4
2016-Sep-28 20:54 169 0 gusting 3 20.0
2016-Sep-28 20:39 184 0 gusting 3 20.0
2016-Sep-28 20:24 173 20.0
2016-Sep-28 20:09 175 0 gusting 2 20.6
2016-Sep-28 19:54 174 0 gusting 5 21.1
2016-Sep-28 19:39 152 0 gusting 3 21.1
2016-Sep-28 19:24 178 21.7
2016-Sep-28 19:09 178 21.7
2016-Sep-28 18:54 178 22.2
2016-Sep-28 18:39 178 22.8
2016-Sep-28 18:24 178 22.8
2016-Sep-28 18:09 178 23.3
2016-Sep-28 17:54 159 1 gusting 5 23.9
2016-Sep-28 17:39 150 23.9
2016-Sep-28 17:24 145 2 gusting 5 24.4
2016-Sep-28 17:09 167 1 gusting 5 25.0
2016-Sep-28 16:54 132 1 gusting 5 25.0
2016-Sep-28 16:39 083 1 gusting 6 25.0
2016-Sep-28 16:24 181 1 gusting 5 24.4
2016-Sep-28 16:09 109 1 gusting 4 26.1
2016-Sep-28 15:54 203 25.6
2016-Sep-28 15:39 052 0 gusting 6 25.6
2016-Sep-28 15:24 171 0 gusting 5 25.6
2016-Sep-28 15:09 173 0 gusting 6 25.6
2016-Sep-28 14:54 173 0 gusting 6 25.0
2016-Sep-28 14:39 138 2 gusting 9 24.4
2016-Sep-28 14:24 076 1 gusting 9 25.0
2016-Sep-28 14:09 053 1 gusting 6 24.4
2016-Sep-28 13:54 124 0 gusting 6 23.3
2016-Sep-28 13:39 122 0 gusting 8 23.9
2016-Sep-28 13:24 103 2 gusting 8 23.9
2016-Sep-28 13:09 122 2 gusting 8 23.3
2016-Sep-28 12:54 130 23.3
2016-Sep-28 12:39 116 2 gusting 6 22.8
2016-Sep-28 12:24 134 3 gusting 6 23.9
2016-Sep-28 12:09 061 2 gusting 6 22.8
2016-Sep-28 11:54 119 5 gusting 7 22.2
2016-Sep-28 11:39 155 1 gusting 6 22.2
2016-Sep-28 11:24 163 2 gusting 6 22.2
2016-Sep-28 11:09 126 1 gusting 6 22.2
2016-Sep-28 10:54 054 2 gusting 6 21.7
2016-Sep-28 10:39 047 5 gusting 7 21.1
2016-Sep-28 10:24 051 4 gusting 8 21.1
2016-Sep-28 10:09 047 6 gusting 11 20.6
2016-Sep-28 09:54 065 6 gusting 13 20.6
2016-Sep-28 09:39 059 5 gusting 10 20.0
2016-Sep-28 09:23 032 5 gusting 10 20.0
2016-Sep-28 09:08 055 5 gusting 11 19.4
2016-Sep-28 08:53 080 5 gusting 12 18.9
2016-Sep-28 08:38 053 3 gusting 10 18.3
2016-Sep-28 08:23 065 4 gusting 13 17.8
2016-Sep-28 08:08 030 7 gusting 15 17.8
2016-Sep-28 07:53 042 6 gusting 13 17.2
2016-Sep-28 07:38 071 6 gusting 12 17.2
2016-Sep-28 07:23 055 4 gusting 10 16.7
2016-Sep-28 07:08 058 6 gusting 12 16.1
2016-Sep-28 06:53 061 5 gusting 9 16.1
2016-Sep-28 06:38 088 5 gusting 11 16.1
2016-Sep-28 06:23 019 6 gusting 11 15.6
2016-Sep-28 06:07 058 6 gusting 12 15.6
2016-Sep-28 05:52 064 4 gusting 14 15.6
2016-Sep-28 05:37 073 3 gusting 8 15.6
2016-Sep-28 05:22 046 3 gusting 9 16.1
2016-Sep-28 05:07 065 4 gusting 11 16.1
2016-Sep-28 04:52 033 4 gusting 8 16.7
2016-Sep-28 04:37 078 6 gusting 11 16.7
2016-Sep-28 04:22 072 2 gusting 11 16.7
2016-Sep-28 04:07 050 6 gusting 10 16.7
2016-Sep-28 03:52 028 4 gusting 7 16.7
2016-Sep-28 03:37 011 3 gusting 7 16.7
2016-Sep-28 03:22 028 4 gusting 9 17.2
2016-Sep-28 03:07 046 4 gusting 10 17.2
2016-Sep-28 02:52 026 5 gusting 8 17.2
2016-Sep-28 02:37 034 5 gusting 10 17.2
2016-Sep-28 02:22 038 4 gusting 7 17.2
2016-Sep-28 02:07 063 3 gusting 6 17.2
2016-Sep-28 01:52 049 3 gusting 6 17.2
2016-Sep-28 01:37 066 4 gusting 7 17.2
2016-Sep-28 01:22 048 3 gusting 8 17.2
2016-Sep-28 01:07 049 3 gusting 8 17.8
2016-Sep-28 00:52 040 2 gusting 6 17.8
2016-Sep-28 00:37 059 2 gusting 8 18.3
2016-Sep-28 00:22 024 4 gusting 9 18.3
2016-Sep-28 00:07 042 4 gusting 10 18.3
2016-Sep-27 23:52 068 5 gusting 11 18.9
2016-Sep-27 23:37 065 6 gusting 12 18.9
2016-Sep-27 23:22 032 6 gusting 14 18.9
2016-Sep-27 23:07 033 6 gusting 15 19.4
2016-Sep-27 22:52 051 6 gusting 12 19.4
2016-Sep-27 22:36 059 6 gusting 14 20.0
2016-Sep-27 22:21 043 6 gusting 18 20.0
2016-Sep-27 22:07 046 6 gusting 15 20.0
2016-Sep-27 21:51 063 7 gusting 16 20.6
2016-Sep-27 21:36 076 9 gusting 16 20.6
2016-Sep-27 21:21 061 7 gusting 16 21.1
2016-Sep-27 21:06 038 7 gusting 13 21.7
2016-Sep-27 20:51 046 9 gusting 15 22.2
2016-Sep-27 20:36 036 6 gusting 13 22.2
2016-Sep-27 20:21 013 5 gusting 7 22.2
2016-Sep-27 20:06 029 4 gusting 10 22.2
2016-Sep-27 19:51 051 4 gusting 12 22.8
2016-Sep-27 19:36 043 4 gusting 9 22.8
2016-Sep-27 19:21 056 4 gusting 11 23.3
2016-Sep-27 19:06 065 5 gusting 12 23.9
2016-Sep-27 18:51 024 6 gusting 13 25.0
2016-Sep-27 18:36 056 2 gusting 6 25.6
2016-Sep-27 18:21 043 4 gusting 8 25.6
2016-Sep-27 18:06 065 0 gusting 3 26.1